Torna al catalogo

MIDAS 4 DEB

LostPO
NORAD 29255·DEBRIS·🇺🇸 United States

Lanciato Oct 21, 1961 da Vandenberg Space Force Base

Loading…

Prossimi Passaggi (prossime 24 ore)

TLE

ObsoletoSource: Space-Track

Epoca: Oct 8, 2006, 06:28 UTC

1 29255U 61028J   06281.26958105 -.00000005  00000-0  10000-3 0  9993
2 29255  95.8576 218.6636 0820796 288.4033  62.9563  8.71055895 10478

Traccia MIDAS 4 DEB in tempo reale con AllMySat

Download on the App Store